{"data":{"norad_id":57178,"epoch":"2026-09-19T22:19:22.060416Z","epoch_age_seconds":63547,"freshness":"FRESH","line1":"1 57178U 23091N   26262.93011644  .00009513  00000+0  29756-3 0  9998","line2":"2 57178  97.4995 329.8097 0011484 113.7455 246.4993 15.33292020178937","mean_motion":15.3329202,"eccentricity":0.0011484,"inclination_deg":97.4995,"raan_deg":329.8097,"arg_perigee_deg":113.7455,"mean_anomaly_deg":246.4993,"bstar":0.00029756,"rev_number":17893,"period_min":93.915573890484,"perigee_km":458.13856810826,"apogee_km":473.85817823336,"semimajor_km":6844.1353731708,"source":"CELESTRAK","updated_at":"2026-09-20T09:00:45.237451Z"}}